Previsão horária em Cerro Corá

Hoje, 31 Julho, Sábado

Tempo Temperatura Precipitação Vento Pressão Humidade
00:00 +21°C° 0 mm 5 m/s 717 mmHg 80%
01:00 +21°C° 0 mm 5 m/s 717 mmHg 79%
02:00 +21°C° 0 mm 5 m/s 717 mmHg 80%
03:00 +20°C° 0 mm 5 m/s 717 mmHg 81%
04:00 +20°C° 0 mm 5 m/s 716 mmHg 81%
05:00 +20°C° 0 mm 5 m/s 717 mmHg 80%
06:00 +20°C° 0 mm 5 m/s 717 mmHg 79%
07:00 +20°C° 0 mm 5 m/s 717 mmHg 79%
08:00 +22°C° 0 mm 6 m/s 718 mmHg 69%
09:00 +26°C° 0 mm 6 m/s 719 mmHg 59%
10:00 +28°C° 0 mm 7 m/s 719 mmHg 50%
11:00 +30°C° 0 mm 7 m/s 719 mmHg 45%
12:00 +32°C° 0 mm 7 m/s 718 mmHg 41%
13:00 +33°C° 0 mm 7 m/s 718 mmHg 36%
14:00 +33°C° 0 mm 7 m/s 718 mmHg 36%
15:00 +33°C° 0 mm 7 m/s 717 mmHg 37%
16:00 +32°C° 0 mm 7 m/s 716 mmHg 37%
17:00 +30°C° 0 mm 7 m/s 717 mmHg 41%
18:00 +28°C° 0 mm 6 m/s 717 mmHg 45%
19:00 +27°C° 0 mm 5 m/s 718 mmHg 50%
20:00 +26°C° 0 mm 6 m/s 718 mmHg 58%
21:00 +23°C° 0 mm 6 m/s 718 mmHg 66%
22:00 +22°C° 0 mm 6 m/s 718 mmHg 74%
23:00 +22°C° 0 mm 6 m/s 718 mmHg 76%

Amanhã, 1 Agosto, Domingo

Tempo Temperatura Precipitação Vento Pressão Humidade
00:00 +21°C° 0 mm 6 m/s 718 mmHg 78%
01:00 +21°C° 0 mm 6 m/s 718 mmHg 80%
02:00 +21°C° 0 mm 6 m/s 717 mmHg 79%
03:00 +21°C° 0 mm 6 m/s 717 mmHg 79%
04:00 +21°C° 0 mm 6 m/s 717 mmHg 78%
05:00 +21°C° 0 mm 6 m/s 717 mmHg 79%
06:00 +21°C° 0 mm 5 m/s 717 mmHg 80%
07:00 +21°C° 0 mm 5 m/s 718 mmHg 80%
08:00 +22°C° 0 mm 6 m/s 718 mmHg 72%
09:00 +24°C° 0 mm 6 m/s 719 mmHg 63%
10:00 +27°C° 0 mm 7 m/s 719 mmHg 54%
11:00 +29°C° 0 mm 7 m/s 719 mmHg 49%
12:00 +30°C° 0 mm 7 m/s 719 mmHg 45%
13:00 +32°C° 0 mm 7 m/s 718 mmHg 40%
14:00 +30°C° 0.1 mm 7 m/s 718 mmHg 44%
15:00 +29°C° 0.1 mm 6 m/s 717 mmHg 49%
16:00 +29°C° 0.1 mm 6 m/s 717 mmHg 53%
17:00 +27°C° 0.1 mm 6 m/s 717 mmHg 59%
18:00 +26°C° 0.1 mm 6 m/s 718 mmHg 65%
19:00 +24°C° 0.1 mm 6 m/s 718 mmHg 70%
20:00 +23°C° 0 mm 5 m/s 718 mmHg 74%
21:00 +22°C° 0 mm 5 m/s 719 mmHg 78%
22:00 +21°C° 0 mm 5 m/s 719 mmHg 81%
23:00 +21°C° 0 mm 5 m/s 719 mmHg 81%

Depois de amanhã, 2 Agosto, Segunda-feira

Tempo Temperatura Precipitação Vento Pressão Humidade
00:00 +21°C° 0 mm 5 m/s 719 mmHg 81%
01:00 +20°C° 0 mm 6 m/s 718 mmHg 80%
02:00 +20°C° 0 mm 5 m/s 718 mmHg 80%
03:00 +20°C° 0 mm 5 m/s 718 mmHg 80%
04:00 +20°C° 0 mm 5 m/s 717 mmHg 79%
05:00 +20°C° 0 mm 5 m/s 717 mmHg 78%
06:00 +21°C° 0 mm 5 m/s 718 mmHg 76%
07:00 +21°C° 0 mm 5 m/s 718 mmHg 75%
08:00 +23°C° 0 mm 6 m/s 718 mmHg 68%
09:00 +24°C° 0 mm 7 m/s 719 mmHg 61%
10:00 +27°C° 0 mm 7 m/s 719 mmHg 54%
11:00 +28°C° 0 mm 7 m/s 719 mmHg 52%
12:00 +29°C° 0 mm 7 m/s 718 mmHg 49%
13:00 +29°C° 0 mm 6 m/s 718 mmHg 47%
14:00 +29°C° 0 mm 6 m/s 717 mmHg 47%
15:00 +29°C° 0 mm 6 m/s 717 mmHg 48%
16:00 +29°C° 0 mm 6 m/s 716 mmHg 49%
17:00 +28°C° 0.1 mm 5 m/s 717 mmHg 56%
18:00 +26°C° 0.1 mm 5 m/s 717 mmHg 63%
19:00 +25°C° 0.1 mm 5 m/s 717 mmHg 70%
20:00 +23°C° 0 mm 5 m/s 717 mmHg 76%
21:00 +22°C° 0 mm 4 m/s 718 mmHg 81%
22:00 +21°C° 0 mm 4 m/s 718 mmHg 87%
23:00 +21°C° 0 mm 4 m/s 718 mmHg 88%

3 Agosto, Terça-feira

Tempo Temperatura Precipitação Vento Pressão Humidade
00:00 +20°C° 0 mm 4 m/s 717 mmHg 88%
01:00 +20°C° 0 mm 4 m/s 717 mmHg 89%
02:00 +20°C° 0 mm 4 m/s 717 mmHg 89%
03:00 +20°C° 0 mm 5 m/s 716 mmHg 88%
04:00 +20°C° 0 mm 5 m/s 716 mmHg 88%
05:00 +20°C° 0 mm 4 m/s 716 mmHg 88%
06:00 +20°C° 0 mm 4 m/s 717 mmHg 87%
07:00 +20°C° 0 mm 4 m/s 717 mmHg 86%
08:00 +22°C° 0 mm 5 m/s 717 mmHg 75%
09:00 +26°C° 0 mm 6 m/s 718 mmHg 63%
10:00 +28°C° 0 mm 6 m/s 718 mmHg 52%
11:00 +29°C° 0 mm 6 m/s 718 mmHg 47%
12:00 +30°C° 0 mm 6 m/s 717 mmHg 43%
13:00 +33°C° 0 mm 6 m/s 717 mmHg 39%
14:00 +32°C° 0 mm 6 m/s 717 mmHg 41%
15:00 +30°C° 0 mm 5 m/s 716 mmHg 43%
16:00 +30°C° 0 mm 5 m/s 716 mmHg 45%
17:00 +28°C° 0 mm 5 m/s 716 mmHg 52%
18:00 +27°C° 0 mm 5 m/s 716 mmHg 58%
19:00 +25°C° 0 mm 5 m/s 717 mmHg 65%
20:00 +25°C° 0 mm 5 m/s 717 mmHg 70%
21:00 +23°C° 0 mm 5 m/s 717 mmHg 74%
22:00 +22°C° 0 mm 5 m/s 717 mmHg 79%
23:00 +21°C° 0 mm 5 m/s 717 mmHg 80%

4 Agosto, Quarta-feira

Tempo Temperatura Precipitação Vento Pressão Humidade
00:00 +21°C° 0 mm 5 m/s 717 mmHg 81%
01:00 +21°C° 0 mm 6 m/s 717 mmHg 83%
02:00 +20°C° 0 mm 5 m/s 716 mmHg 83%
03:00 +20°C° 0 mm 5 m/s 716 mmHg 83%
04:00 +20°C° 0 mm 5 m/s 716 mmHg 83%
05:00 +20°C° 0 mm 5 m/s 716 mmHg 82%
06:00 +20°C° 0 mm 5 m/s 716 mmHg 82%
07:00 +20°C° 0 mm 4 m/s 717 mmHg 81%
08:00 +22°C° 0 mm 5 m/s 717 mmHg 71%
09:00 +26°C° 0 mm 6 m/s 718 mmHg 60%
10:00 +28°C° 0 mm 6 m/s 719 mmHg 49%
11:00 +30°C° 0 mm 6 m/s 718 mmHg 45%
12:00 +33°C° 0 mm 6 m/s 718 mmHg 40%
13:00 +34°C° 0 mm 5 m/s 717 mmHg 35%
14:00 +33°C° 0 mm 5 m/s 717 mmHg 38%
15:00 +32°C° 0 mm 5 m/s 717 mmHg 40%
16:00 +30°C° 0 mm 5 m/s 716 mmHg 43%
17:00 +29°C° 0 mm 5 m/s 716 mmHg 47%
18:00 +28°C° 0 mm 5 m/s 717 mmHg 52%
19:00 +27°C° 0 mm 5 m/s 717 mmHg 56%
20:00 +26°C° 0 mm 6 m/s 717 mmHg 63%
21:00 +24°C° 0 mm 6 m/s 717 mmHg 70%
22:00 +22°C° 0 mm 6 m/s 718 mmHg 77%
23:00 +22°C° 0 mm 6 m/s 718 mmHg 79%

5 Agosto, Quinta-feira

Tempo Temperatura Precipitação Vento Pressão Humidade
00:00 +21°C° 0 mm 6 m/s 717 mmHg 81%
01:00 +21°C° 0 mm 5 m/s 717 mmHg 83%
02:00 +21°C° 0 mm 5 m/s 717 mmHg 84%
03:00 +20°C° 0 mm 5 m/s 717 mmHg 84%
04:00 +20°C° 0 mm 5 m/s 717 mmHg 84%
05:00 +20°C° 0 mm 4 m/s 717 mmHg 84%
06:00 +20°C° 0 mm 4 m/s 717 mmHg 84%
07:00 +20°C° 0 mm 4 m/s 718 mmHg 83%
08:00 +22°C° 0 mm 4 m/s 718 mmHg 72%
09:00 +26°C° 0 mm 5 m/s 719 mmHg 61%
10:00 +29°C° 0 mm 6 m/s 719 mmHg 50%
11:00 +30°C° 0 mm 6 m/s 719 mmHg 45%
12:00 +33°C° 0 mm 6 m/s 718 mmHg 40%
13:00 +34°C° 0 mm 6 m/s 718 mmHg 35%
14:00 +33°C° 0 mm 6 m/s 718 mmHg 38%
15:00 +32°C° 0 mm 6 m/s 717 mmHg 41%
16:00 +30°C° 0 mm 6 m/s 717 mmHg 44%
17:00 +29°C° 0 mm 6 m/s 717 mmHg 50%
18:00 +28°C° 0 mm 6 m/s 717 mmHg 56%
19:00 +26°C° 0 mm 6 m/s 717 mmHg 62%
20:00 +24°C° 0 mm 6 m/s 718 mmHg 67%
21:00 +23°C° 0 mm 6 m/s 718 mmHg 73%
22:00 +22°C° 0 mm 6 m/s 719 mmHg 79%
23:00 +22°C° 0 mm 6 m/s 718 mmHg 80%
Mostrar mais

Necessitamos do seu Consentimento

A Meteoprog e os seus Fornecedores de Serviços podem armazenar e aceder a dados pessoais como cookies, identificadores do dispositivo ou outras tecnologias semelhantes existentes no seu dispositivo e processar estes dados para personalizar conteúdos e anúncios, assim como funcionalidades nas redes sociais e análise de tráfego.

  • Armazenar e/ou aceder a informações no seu dispositivo

    Os cookies, identificadores do dispositivo ou outras informações podem ser armazenados ou acedidos no seu dispositivo, para os fins acima indicados.

  • Anúncios e conteúdos personalizados, medição de anúncios e conteúdos, dados sobre o público-alvo e desenvolvimento de produtos

    Os anúncios e os conteúdos podem ser personalizados com base num perfil. Podem ser adicionados dados adicionais para uma maior personalização dos anúncios e dos conteúdos. A eficácia dos anúncios e dos conteúdos pode ser medida. Podem ser obtidas informações sobre o público que visualizou os anúncios e os conteúdos. Estes dados podem ser usados para desenvolver ou melhorar sistemas, softwares ou a experiência do utilizador.

Ao clicar em "Eu concordo”, permitirá o uso de cookies, identificadores do dispositivo e web beacons mencionados ou outras tecnologias semelhantes. As configurações do navegador do seu dispositivo podem ser alteradas.

Para certos fins, podem ser invocados interesses legítimos ao invés de consentimento. Pode ler mais informação sobre este assunto na nossa Política de Privacidade e Cookies.